User: anonymous   Login
Location: Boston
(42.3580°N, 71.0600°W)
Time: 07:15:03
(UTC-04:00)
Language:

Envisat - Orbit

View from above orbital plane
View from above orbital plane
View from above satellite
View from above satellite

Ground track
Ground track

The orbit data is extracted from the following two-line orbital elements,

1 27386U 02009A   17291.13641507 -.00000006  00000-0  11717-4 0  9992
2 27386  98.2182 331.1957 0001229  87.6391 272.4947 14.37905636818742
Epoch (UTC): 18 October 2017 03:16:26
Eccentricity: 0.0001229
inclination: 98.2182°
perigee height: 764 km
apogee height: 766 km
right ascension of ascending node: 331.1957°
argument of perigee: 87.6391°
revolutions per day: 14.37905636
mean anomaly at epoch: 272.4947°
orbit number at epoch: 81874

The dashed part of the orbit path shows where the satellite is in the earth's shadow,  

DLR